Regional Weather Roundup
Issued by NWS Northern Indiana

Home | Current Version | Previous Version | Text Only | Print | Product List | Glossary Off
Versions: 1 2 3 4 5 6 7 8 9 10 11 12 13 14 15 16 17 18 19 20 21 22 23 24 25 26 27 28 29 30 31 32 33 34 35 36 37 38 39 40 41 42 43 44 45 46 47 48 49 50

000
ASUS43 KIWX 231810
RWRIWX

KIWX WEATHER ROUNDUP
NATIONAL WEATHER SERVICE NORTHERN INDIANA
200 PM EDT WED APR 23 2014

NOTE: "FAIR" INDICATES FEW OR NO CLOUDS BELOW 12,000 FEET WITH NO
SIGNIFICANT WEATHER AND/OR OBSTRUCTIONS TO VISIBILITY.

* THESE STATIONS ARE NOT UNDER NWS QUALITY CONTROL. THEY ALSO MAY NOT
  REPORT WEATHER SUCH AS PRECIPITATION OR FOG.

INZ001>027-231900-
NORTHERN INDIANA

CITY           SKY/WX    TMP DP  RH WIND       PRES   REMARKS
GARY*          MOSUNNY   46  30  53 NE14      30.19R
VALPARAISO     SUNNY     48  30  49 N8        30.15S
6HR MIN TEMP:  34; 6HR MAX TEMP:  48; 6HR PCP: TRACE;

MICHIGAN CITY* SUNNY     43  32  65 NW8       30.18R
SOUTH BEND     SUNNY     52  29  41 VRB5      30.14S
6HR MIN TEMP:  35; 6HR MAX TEMP:  53;

GOSHEN         SUNNY     53  32  44 NE8       30.11F
6HR MIN TEMP:  35; 6HR MAX TEMP:  53;

MONTICELLO*    SUNNY     53  29  41 N6        30.13F
6HR MIN TEMP:  35; 6HR MAX TEMP:  53;

LOGANSPORT*    SUNNY     52  28  40 NW6       30.13S
ROCHESTER*     SUNNY     54  28  37 NW9       30.12S
WARSAW*        SUNNY     50  32  50 N5        30.12R
ANGOLA*        SUNNY     52  28  40 N9        30.09S
FORT WAYNE     MOSUNNY   54  31  41 NE7       30.10F
6HR MIN TEMP:  36; 6HR MAX TEMP:  54;

HUNTINGTON*    FAIR      52  29  42 N6        30.10F
6HR MIN TEMP:  35; 6HR MAX TEMP:  52;

PERU/GRISSOM   SUNNY     53  31  43 VRB3      30.11F
6HR MIN TEMP:  35; 6HR MAX TEMP:  53;

MARION*        SUNNY     51  28  40 NE6       30.11F
6HR MIN TEMP:  32; 6HR MAX TEMP:  77;


$$
INZ028>050-231900-
CENTRAL INDIANA

CITY           SKY/WX    TMP DP  RH WIND       PRES   REMARKS
LAFAYETTE      SUNNY     52  28  39 CALM      30.12F
6HR MIN TEMP:  35; 6HR MAX TEMP:  53;

KOKOMO*        SUNNY     54  30  40 NW6       30.12S
MUNCIE*        SUNNY     53  31  42 VRB3      30.10F
6HR MIN TEMP:  35; 6HR MAX TEMP:  53;

INDIANAPOLIS   MOSUNNY   54  30  40 N10       30.10F
6HR MIN TEMP:  37; 6HR MAX TEMP:  54;


$$
MIZ043>046-050>051-056>058-064>065-071>073-077>080-231900-
SOUTHWEST LOWER MICHIGAN

CITY           SKY/WX    TMP DP  RH WIND       PRES   REMARKS
BATTLE CREEK   SUNNY     51  22  31 NE7       30.11F
6HR MIN TEMP:  33; 6HR MAX TEMP:  52;

BENTON HARBOR  SUNNY     41  33  73 NW12G18   30.16R
6HR MIN TEMP:  34; 6HR MAX TEMP:  43;

COLDWATER*     SUNNY     50  24  35 NE7       30.09F
6HR MIN TEMP:  33; 6HR MAX TEMP:  51;

HILLSDALE*     SUNNY     51  24  35 N9        30.08S
HOLLAND        SUNNY     49  30  48 NW12      30.15S
6HR MIN TEMP:  36; 6HR MAX TEMP:  53;

GRAND RAPIDS   PTSUNNY   53  21  28 VRB5      30.12F
6HR MIN TEMP:  34; 6HR MAX TEMP:  53;

KALAMAZOO      SUNNY     52  22  30 N7G16     30.12F
6HR MIN TEMP:  34; 6HR MAX TEMP:  53;

STURGIS*       SUNNY     52  28  40 N10G17    30.10S
THREE RIVERS*  FAIR      52  26  35 NE5       30.12S
6HR MIN TEMP:  35; 6HR MAX TEMP:  52;


$$
OHZ001>008-015>018-024>025-231900-
NORTHWEST OHIO

CITY           SKY/WX    TMP DP  RH WIND       PRES   REMARKS
WAUSEON*       FAIR      52  28  40 N7G16     30.09S
DEFIANCE       SUNNY     54  29  38 N9        30.09F
6HR MIN TEMP:  37; 6HR MAX TEMP:  54;

FINDLAY        SUNNY     52  31  44 N8        30.08F
6HR MIN TEMP:  36; 6HR MAX TEMP:  52;

TOLEDO EXPRESS SUNNY     51  29  42 NE8       30.09F
6HR MIN TEMP:  37; 6HR MAX TEMP:  52;

TOLEDO METCALF MOSUNNY   50  30  46 W9        30.10S
6HR MIN TEMP:  38; 6HR MAX TEMP:  50;

LIMA           MOSUNNY   53  34  48 NW10G18   30.09F
6HR MIN TEMP:  36; 6HR MAX TEMP:  53;


$$
&&



USA.gov is the U.S. government's official web portal to all federal, state and local government web resources and services.